Location: Franzen
(48.6167°N, 15.3833°E)
Time: 21:54:51
(UTC+00:00)

Transit 2A - Pass Details

Date: 09 August 2021
Orbit: 594 x 964 km, 66.7° (Epoch: 26 September)

Event Time Altitude Azimuth Distance (km) Brightness Sun altitude
Rises 12:47:48 0° 317° (NW) 3,296 9.2 50.8°
Reaches altitude 10° 12:50:22 10° 308° (NW) 2,422 8.8 50.5°
Maximum altitude 12:55:15 31° 247° (WSW) 1,472 8.9 50.0°
Drops below altitude 10° 13:00:30 10° 187° (S) 2,603 9.4 49.4°
Sets 13:03:21 0° 178° (S) 3,581 9.8 49.0°
